Showing default

HULIANWANG DIGUI-145, 67443

Orbit data source: Space-Track

HULIANWANG DIGUI-145, 67443 is a payload satellite owned by Zhongguo Xingwang (CN) in LEO that was launched on Tue, 13 Jan 2026 UTC via a CHANG ZHENG 8A launch vehicle from the Wenchang Satellite Launch Center (WSC). Payload-class satellites include a variety of spacecraft equipped with specific instruments for various scientific and technological missions. These include communications satellites like Starlink; space stations such as the ISS; scientific satellites like the Hubble; Earth observation satellites from companies like Planet Labs, Umbra, and HawkEye 360; GPS; miniature CubeSats for education and research; and military/defense satellites.

Loading next visibility...
Identifier
67443, 2026-007J
Orbit
LEO
Country
Flag of CNCN / PRC
Related business
Manufacturer
CAST
Mission
Operational spacecraft
Bus & Motor
XINGWANG C, Unknown motor
Mass
~700 kg wet, ~700 kg dry
Launch date (UTC)
2026-01-13 (2 months ago)
Launch vehicle
CHANG ZHENG 8A
Launch site
Wenchang Satellite Launch Center (WSC)
Object type
Payload
Rocket body
Debris
Shape & HBR
Unknown shape, 14.5 m
Radar Cross Section
RCS unknown

Expand to show TLE details & history
Last TLE update: 4 days ago

TLE from 4 days ago
0 HULIANWANG DIGUI-145
1 67443U 26007J   26069.11936298 -.00000059  00000-0  12980-3 0  9999
2 67443  50.0078  80.9138 0000951 330.3755  29.7067 13.36587384  7619
Epoch: 2026-03-10T02:51Z
TLE epoch observation values (Epoch: 2026-03-10T02:51:52.961Z)
Latitude
0.00003°
Longitude
-129.85937°
Altitude
1,121.908 km
Speed
7.293 km/s
True Right ascension
05h 23m 39s
True Declination
0° 00' 00"
Sunlit
Object was in daylight at epoch
Visualization orbit readout
Latitude
Unknown
Longitude
Unknown
Altitude
Unknown
Speed
Unknown
Apparent Right ascension
Unknown
Apparent Declination
Unknown
Sunlit
N/A
Visualization observer readout
Local Sidereal Time
09:34:51
Azimuth
Unknown
Elevation
Unknown
Doppler factor
Unknown
Orbital elements
Apogee altitude
1,123.439 km
Perigee altitude
1,122.012 km
Semi-major axis
7,500.862 km
Eccentricity
0.0001
Inclination
50.0078°
RAAN
80.9138°
Arg. of periapsis
330.3755°
True anomaly
29.7121°
Mean anomaly
29.7067°
Eccentric anomaly
29.7094°
Mean motion
3.341 °/min
Orbital period
107.75 mins
BSTAR
0.0001298
Loading maneuver chart data...
Computing Atmospheric mass density...
Loading historical data...
Loading historical data...
Loading historical data...
Loading historical data...
Loading historical data...
Loading historical data...
Loading historical data...

Documentation

Showing up to 5 results
|